Regional Weather Roundup
Issued by NWS

Home | Current Version | Previous Version | Text Only | Print | Product List | Glossary Off
Versions: 1 2 3 4 5 6 7 8 9 10 11 12 13 14 15 16 17 18 19 20 21 22 23 24 25 26 27 28 29 30 31 32 33 34 35 36 37 38 39 40 41 42 43 44 45 46 47 48 49 50

000
ASUS45 KPSR 100110
RWRAZ

ARIZONA REGIONAL HOURLY WEATHER ROUNDUP
NATIONAL WEATHER SERVICE PHOENIX AZ
600 PM MST WED JUL 09 2014

NOTE: FAIR INDICATES FEW OR NO CLOUDS BELOW 12,000 FEET WITH NO
SIGNIFICANT WEATHER AND/OR OBSTRUCTIONS TO VISIBILITY.

AZZ001>003-036-100200-
NORTHWEST ARIZONA

CITY           SKY/WX    TMP DP  RH WIND       PRES   REMARKS
BULLHEAD CITY  MOSUNNY   99 N/A N/A S13G21    29.75F
KINGMAN        MOSUNNY   88  56  33 SW14      29.97F
$$

AZZ004>008-015-016-018-100200-
NORTH CENTRAL ARIZONA

CITY           SKY/WX    TMP DP  RH WIND       PRES   REMARKS
GRAND CANYON   PTSUNNY   71  53  52 VRB3      30.21F
WILLIAMS         N/A     68  54  60 CALM      30.28F
PRESCOTT       MOSUNNY   80  53  39 S7        30.09F
FLAGSTAFF      PTSUNNY   70  51  51 VRB6      30.24F
PAYSON         PTSUNNY   81  54  39 W12       30.12R
PAGE           MOSUNNY   92  47  21 VRB6      29.97F
$$

AZZ009>014-017-100200-
NORTHEAST ARIZONA

CITY           SKY/WX    TMP DP  RH WIND       PRES   REMARKS
WINSLOW        PTSUNNY   85  53  33 SW20      30.05R
SAINT JOHNS    PTSUNNY   80  48  32 SE17G29   30.12R
WINDOW ROCK    PTSUNNY   82  43  25 NE3       30.18F
SHOW LOW       PTSUNNY   77  45  31 W9        30.20R
$$

AZZ023-100200-
GREATER PHOENIX AREA

CITY           SKY/WX    TMP DP  RH WIND       PRES   REMARKS
PHOENIX        PTSUNNY   98  60  28 W9        29.79S
BUCKEYE          N/A     95  59  30 W10G17    29.81F
GLENDALE       MOSUNNY   99  61  28 S15G23    29.80F
LUKE AFB       NOT AVBL
DEER VALLEY    SUNNY     96  60  30 SW14      29.81F
SCOTTSDALE     SUNNY     97  61  30 W9        29.83S
MESA-FALCON    MOSUNNY   99  59  26 W12       29.82S
MESA-GATEWAY   PTSUNNY   99  59  26 W7        29.84F
CHANDLER       PTSUNNY   99  63  30 SW7       29.81F HX 100
$$

AZZ027-028-100200-
SOUTHWEST MARICOPA COUNTY AND PINAL COUNTY

CITY           SKY/WX    TMP DP  RH WIND       PRES   REMARKS
CASA GRANDE    SUNNY     95  61  31 W8        29.85S
$$

AZZ503-504-507>509-100200-
SOUTHEAST ARIZONA

CITY           SKY/WX    TMP DP  RH WIND       PRES   REMARKS
TUCSON         MOSUNNY   91  55  29 W14       29.95R
DAVIS-MONTHAN  PTSUNNY   91  57  31 NW14G21   29.94R
RYAN FIELD       N/A     90  57  33 SW9       29.94S
NOGALES        LGT RAIN  77  63  61 NE13G20   30.04R
SIERRA VISTA   LGT RAIN  70  63  78 S14       30.12F
DOUGLAS        CLOUDY    75  62  64 S5        30.06R
SAFFORD        MOSUNNY   91  56  30 W16       29.91R
$$

AZZ020-021-025-026-031-100200-
SOUTHWEST ARIZONA

CITY           SKY/WX    TMP DP  RH WIND       PRES   REMARKS
YUMA           PTSUNNY  100  65  31 S18       29.75F HX 103
$$

CAZ031-033-041-043-047-048-061-100200-
SOUTHERN CALIFORNIA

CITY           SKY/WX    TMP DP  RH WIND       PRES   REMARKS
DOWNTOWN L.A.  SUNNY     76  62  62 VRB7      29.88S
L.A. AIRPORT   PTSUNNY   72  62  71 W15       29.90S
SAN DIEGO      MOSUNNY   73  60  63 VRB6      29.92F
BURBANK        SUNNY     80  54  40 S12       29.87F
ONTARIO        MOSUNNY   88  50  27 SW15      29.86F
RIVERSIDE      SUNNY     87  52  29 W14G22    29.86S
PALM SPRINGS   SUNNY    104  63  26 SE9       29.74F HX 106
EL CENTRO NAS  MOSUNNY  102  68  33 SE13      29.69F HX 108
IMPERIAL       SUNNY    102  65  29 SE21      29.69F HX 105
BLYTHE         MOSUNNY  100  65  31 SE14      29.73F HX 103
NEEDLES        MOSUNNY   98  66  34 W15       29.77F HX 101
$$

NVZ020-UTZ003-100200-
SOUTHERN NEVADA-UTAH

CITY           SKY/WX    TMP DP  RH WIND       PRES   REMARKS
LAS VEGAS      PTSUNNY   95  58  28 NE5       29.79F
SALT LAKE CITY PTSUNNY   86  49  27 SE16G26   29.95R
$$

NMZ009-TXZ055-100200-
NEW MEXICO-WEST TEXAS

CITY           SKY/WX    TMP DP  RH WIND       PRES   REMARKS
ALBUQUERQUE    PTSUNNY   86  49  27 SE17      30.09S
EL PASO        FAIR      93  49  22 S8        29.95S
$$


........................KEY........................
SKY/WX - SKY CONDITION/WEATHER
TMP    - TEMPERATURE IN FAHRENHEIT
DP     - DEW POINT IN FAHRENHEIT
RH     - RELATIVE HUMIDITY IN PERCENT
WIND   - DIRECTION AND SPEED IN MILES PER HOUR (MPH)
VRB    - VARIABLE WIND DIRECTION
PRES   - MEAN SEA LEVEL PRESSURE IN INCHES OF MERCURY
         F - FALLING PRESSURE   R - RISING PRESSURE
         S - STEADY PRESSURE
VSB    - VISIBILITY IN MILES
HX     - HEAT INDEX IN FAHRENHEIT
WCI    - WIND CHILL INDEX IN FAHRENHEIT
TC     - TEMPERATURE IN CELSIUS WHICH IS ALSO KNOWN AS
         TEMPERATURE IN CENTIGRADE
AFB    - AIR FORCE BASE
         LUKE AFB IS LUKE AIR FORCE BASE
         DAVIS-MONTHAN IS DAVIS-MONTHAN AIR FORCE BASE
NAS    - NAVAL AIR STATION
         EL CENTRO NAS IS EL CENTRO NAVAL AIR STATION
N/A    - NOT AVAILABLE



USA.gov is the U.S. government's official web portal to all federal, state and local government web resources and services.